Time,TemperatureF,DewpointF,PressureIn,WindDirection,WindDirectionDegrees,WindSpeedMPH,WindSpeedGustMPH,Humidity,HourlyPrecipIn,Conditions,Clouds,dailyrainin,SoftwareType,DateUTC
2013-04-28 00:07:00,74.2,74.0,30.06,East,86,5.0,-999.0,100,-99.99,,,0.00,weatherlink.com 1.10,2013-04-28 04:07:00,
2013-04-28 00:22:00,74.0,74.0,30.06,East,91,4.0,-999.0,100,-99.99,,,0.00,weatherlink.com 1.10,2013-04-28 04:22:00,
2013-04-28 00:37:00,74.0,74.0,30.06,ESE,103,5.0,-999.0,100,-99.99,,,0.00,weatherlink.com 1.10,2013-04-28 04:37:00,
2013-04-28 00:52:00,74.0,74.0,30.05,East,83,3.0,-999.0,100,-99.99,,,0.00,weatherlink.com 1.10,2013-04-28 04:52:00,
2013-04-28 01:07:00,73.9,74.0,30.05,East,96,4.0,-999.0,100,-99.99,,,0.00,weatherlink.com 1.10,2013-04-28 05:07:00,
2013-04-28 01:22:00,73.9,74.0,30.05,East,91,0.0,-999.0,100,-99.99,,,0.00,weatherlink.com 1.10,2013-04-28 05:22:00,
2013-04-28 01:37:00,73.9,74.0,30.05,ENE,67,0.0,-999.0,100,-99.99,,,0.00,weatherlink.com 1.10,2013-04-28 05:37:00,
2013-04-28 01:52:00,73.9,74.0,30.04,East,96,3.0,-999.0,100,-99.99,,,0.00,weatherlink.com 1.10,2013-04-28 05:52:00,
2013-04-28 02:07:00,73.7,74.0,30.03,East,82,4.0,-999.0,100,-99.99,,,0.00,weatherlink.com 1.10,2013-04-28 06:07:00,
2013-04-28 02:37:00,73.7,74.0,30.02,East,80,2.0,-999.0,100,-99.99,,,0.00,weatherlink.com 1.10,2013-04-28 06:37:00,
2013-04-28 02:52:00,73.5,74.0,30.02,SE,131,8.0,-999.0,100,-99.99,,,0.00,weatherlink.com 1.10,2013-04-28 06:52:00,
2013-04-28 03:07:00,73.5,74.0,30.01,East,92,0.0,-999.0,100,-99.99,,,0.00,weatherlink.com 1.10,2013-04-28 07:07:00,
2013-04-28 03:22:00,73.3,73.0,30.01,East,84,1.0,-999.0,100,-99.99,,,0.00,weatherlink.com 1.10,2013-04-28 07:22:00,
2013-04-28 03:37:00,73.9,74.0,30.01,East,84,1.0,-999.0,100,-99.99,,,0.00,weatherlink.com 1.10,2013-04-28 07:37:00,
2013-04-28 04:07:00,73.5,74.0,30.00,SE,129,1.0,-999.0,100,-99.99,,,0.00,weatherlink.com 1.10,2013-04-28 08:07:00,
2013-04-28 04:37:00,73.5,74.0,30.00,ENE,67,4.0,-999.0,100,-99.99,,,0.00,weatherlink.com 1.10,2013-04-28 08:37:00,
2013-04-28 04:52:00,73.5,74.0,30.00,ESE,111,4.0,-999.0,100,-99.99,,,0.00,weatherlink.com 1.10,2013-04-28 08:52:00,
2013-04-28 05:37:00,73.2,73.0,29.99,ENE,61,2.0,-999.0,100,-99.99,,,0.00,weatherlink.com 1.10,2013-04-28 09:37:00,
2013-04-28 05:52:00,73.2,73.0,29.98,SE,129,4.0,-999.0,100,-99.99,,,0.00,weatherlink.com 1.10,2013-04-28 09:52:00,
2013-04-28 06:07:00,73.2,73.0,29.98,East,82,2.0,-999.0,100,-99.99,,,0.00,weatherlink.com 1.10,2013-04-28 10:07:00,
2013-04-28 06:22:00,73.3,73.0,29.98,ESE,103,2.0,-999.0,100,-99.99,,,0.00,weatherlink.com 1.10,2013-04-28 10:22:00,
2013-04-28 06:37:00,73.3,73.0,29.98,ENE,70,1.0,-999.0,100,-99.99,,,0.00,weatherlink.com 1.10,2013-04-28 10:37:00,
2013-04-28 06:52:00,73.2,73.0,29.99,East,80,1.0,-999.0,100,-99.99,,,0.00,weatherlink.com 1.10,2013-04-28 10:52:00,
2013-04-28 07:07:00,73.2,73.0,29.99,North,-999,0.0,-999.0,100,-99.99,,,0.00,weatherlink.com 1.10,2013-04-28 11:07:00,
2013-04-28 07:22:00,73.2,73.0,29.98,North,-999,0.0,-999.0,100,-99.99,,,0.00,weatherlink.com 1.10,2013-04-28 11:22:00,
2013-04-28 07:37:00,74.2,74.0,30.00,East,88,6.0,-999.0,100,-99.99,,,0.00,weatherlink.com 1.10,2013-04-28 11:37:00,
2013-04-28 07:52:00,75.3,75.0,30.01,East,101,3.0,-999.0,100,-99.99,,,0.00,weatherlink.com 1.10,2013-04-28 11:52:00,
2013-04-28 08:07:00,75.6,76.0,30.00,East,81,2.0,-999.0,100,-99.99,,,0.00,weatherlink.com 1.10,2013-04-28 12:07:00,
2013-04-28 08:52:00,77.0,77.0,30.02,East,94,2.0,-999.0,100,-99.99,,,0.00,weatherlink.com 1.10,2013-04-28 12:52:00,
2013-04-28 09:37:00,78.8,79.0,30.03,East,98,2.0,-999.0,100,-99.99,,,0.00,weatherlink.com 1.10,2013-04-28 13:37:00,
2013-04-28 09:53:00,78.1,78.0,30.03,ENE,77,2.0,-999.0,100,-99.99,,,0.00,weatherlink.com 1.10,2013-04-28 13:53:00,
2013-04-28 10:08:00,79.0,79.0,30.04,East,84,4.0,-999.0,100,-99.99,,,0.00,weatherlink.com 1.10,2013-04-28 14:08:00,
2013-04-28 10:23:00,78.8,79.0,30.03,ENE,77,4.0,-999.0,100,-99.99,,,0.00,weatherlink.com 1.10,2013-04-28 14:23:00,
2013-04-28 10:53:00,80.1,80.0,30.05,ESE,122,10.0,-999.0,100,-99.99,,,0.00,weatherlink.com 1.10,2013-04-28 14:53:00,
2013-04-28 11:08:00,79.4,79.0,30.05,ENE,72,4.0,-999.0,100,-99.99,,,0.00,weatherlink.com 1.10,2013-04-28 15:08:00,
2013-04-28 11:23:00,78.3,78.0,30.05,ESE,110,0.0,-999.0,100,-99.99,,,0.00,weatherlink.com 1.10,2013-04-28 15:23:00,
2013-04-28 12:08:00,78.8,79.0,30.05,ESE,111,0.0,-999.0,100,-99.99,,,0.00,weatherlink.com 1.10,2013-04-28 16:08:00,
2013-04-28 12:38:00,77.2,77.0,30.04,ENE,76,3.0,-999.0,100,-99.99,,,0.00,weatherlink.com 1.10,2013-04-28 16:38:00,
2013-04-28 12:53:00,77.2,77.0,30.04,East,80,2.0,-999.0,100,-99.99,,,0.00,weatherlink.com 1.10,2013-04-28 16:53:00,
2013-04-28 13:08:00,77.4,77.0,30.04,ESE,104,6.0,-999.0,100,-99.99,,,0.00,weatherlink.com 1.10,2013-04-28 17:08:00,
2013-04-28 13:23:00,77.4,77.0,30.03,East,87,7.0,-999.0,100,-99.99,,,0.00,weatherlink.com 1.10,2013-04-28 17:23:00,
2013-04-28 13:38:00,75.4,75.0,30.03,ENE,61,0.0,-999.0,100,-99.99,,,0.00,weatherlink.com 1.10,2013-04-28 17:38:00,
2013-04-28 13:53:00,77.7,78.0,30.03,East,86,2.0,-999.0,100,-99.99,,,0.00,weatherlink.com 1.10,2013-04-28 17:53:00,
2013-04-28 14:23:00,79.6,80.0,30.02,East,82,7.0,-999.0,100,-99.99,,,0.00,weatherlink.com 1.10,2013-04-28 18:23:00,
2013-04-28 14:38:00,79.6,80.0,30.01,East,90,9.0,-999.0,100,-99.99,,,0.00,weatherlink.com 1.10,2013-04-28 18:38:00,
2013-04-28 15:08:00,77.9,78.0,30.00,ESE,118,6.0,-999.0,100,-99.99,,,0.00,weatherlink.com 1.10,2013-04-28 19:08:00,
2013-04-28 15:23:00,78.1,78.0,29.99,North,349,0.0,-999.0,100,-99.99,,,0.00,weatherlink.com 1.10,2013-04-28 19:23:00,
2013-04-28 15:38:00,78.6,79.0,29.97,ESE,113,1.0,-999.0,100,-99.99,,,0.00,weatherlink.com 1.10,2013-04-28 19:38:00,
2013-04-28 15:53:00,77.0,77.0,29.97,South,171,4.0,-999.0,100,-99.99,,,0.00,weatherlink.com 1.10,2013-04-28 19:53:00,
2013-04-28 16:08:00,77.7,78.0,29.97,ENE,75,7.0,-999.0,100,-99.99,,,0.00,weatherlink.com 1.10,2013-04-28 20:08:00,
2013-04-28 16:23:00,78.5,79.0,29.96,East,88,9.0,-999.0,100,-99.99,,,0.00,weatherlink.com 1.10,2013-04-28 20:23:00,
2013-04-28 16:38:00,77.9,78.0,29.97,SE,124,5.0,-999.0,100,-99.99,,,0.00,weatherlink.com 1.10,2013-04-28 20:38:00,
2013-04-28 16:53:00,77.7,78.0,29.96,ESE,110,1.0,-999.0,100,-99.99,,,0.00,weatherlink.com 1.10,2013-04-28 20:53:00,
2013-04-28 17:08:00,77.4,77.0,29.96,ESE,106,0.0,-999.0,100,-99.99,,,0.00,weatherlink.com 1.10,2013-04-28 21:08:00,
2013-04-28 17:38:00,78.1,78.0,29.95,East,82,0.0,-999.0,100,-99.99,,,0.00,weatherlink.com 1.10,2013-04-28 21:38:00,
2013-04-28 17:53:00,76.7,77.0,29.95,SE,142,0.0,-999.0,100,-99.99,,,0.00,weatherlink.com 1.10,2013-04-28 21:53:00,
2013-04-28 18:23:00,77.7,78.0,29.94,East,90,0.0,-999.0,100,-99.99,,,0.00,weatherlink.com 1.10,2013-04-28 22:23:00,
2013-04-28 18:38:00,77.4,77.0,29.94,SE,131,4.0,-999.0,100,-99.99,,,0.00,weatherlink.com 1.10,2013-04-28 22:38:00,
2013-04-28 19:08:00,76.0,76.0,29.95,East,97,3.0,-999.0,100,-99.99,,,0.00,weatherlink.com 1.10,2013-04-28 23:08:00,
2013-04-28 19:23:00,75.6,76.0,29.95,ESE,123,0.0,-999.0,100,-99.99,,,0.00,weatherlink.com 1.10,2013-04-28 23:23:00,
2013-04-28 19:38:00,75.3,75.0,29.94,East,86,3.0,-999.0,100,-99.99,,,0.00,weatherlink.com 1.10,2013-04-28 23:38:00,
2013-04-28 20:08:00,74.4,74.0,29.94,ENE,71,2.0,-999.0,100,-99.99,,,0.00,weatherlink.com 1.10,2013-04-29 00:08:00,
2013-04-28 20:23:00,74.2,74.0,29.95,East,85,0.0,-999.0,100,-99.99,,,0.00,weatherlink.com 1.10,2013-04-29 00:23:00,
2013-04-28 20:38:00,74.0,74.0,29.95,East,84,0.0,-999.0,100,-99.99,,,0.00,weatherlink.com 1.10,2013-04-29 00:38:00,
2013-04-28 21:08:00,74.0,74.0,29.95,East,94,0.0,-999.0,100,-99.99,,,0.00,weatherlink.com 1.10,2013-04-29 01:08:00,
2013-04-28 21:23:00,74.0,74.0,29.95,SE,126,0.0,-999.0,100,-99.99,,,0.00,weatherlink.com 1.10,2013-04-29 01:23:00,
2013-04-28 21:38:00,74.0,74.0,29.95,East,90,4.0,-999.0,100,-99.99,,,0.00,weatherlink.com 1.10,2013-04-29 01:38:00,
2013-04-28 21:53:00,74.2,74.0,29.95,ESE,122,0.0,-999.0,100,-99.99,,,0.00,weatherlink.com 1.10,2013-04-29 01:53:00,
2013-04-28 23:08:00,74.4,74.0,29.95,East,91,1.0,-999.0,100,-99.99,,,0.00,weatherlink.com 1.10,2013-04-29 03:08:00,
2013-04-28 23:23:00,74.0,74.0,29.95,ENE,74,0.0,-999.0,100,-99.99,,,0.00,weatherlink.com 1.10,2013-04-29 03:23:00,
2013-04-28 23:38:00,74.0,74.0,29.95,ESE,110,2.0,-999.0,100,-99.99,,,0.00,weatherlink.com 1.10,2013-04-29 03:38:00,